Hourly Data Report for November 02, 2017

All times are specified in Local Standard Time (LST). Add 1 hour to adjust for Daylight Saving Time where and when it is observed.

BATHURST A
NEW BRUNSWICK

47°37'47.000" N
65°44'20.000" W
58.80 m
8100505
71574
ZBF

Download Data

Hourly Data (November 2017)
Hourly Data Report for November 2, 2017
Temp Definition
°C
Dew Point Temp Definition
°C
Rel Hum Definition
%
Wind Dir Definition
10's deg

Wind Spd Definition
km/h
Visibility Definition
km
Stn Press Definition
kPa
Hmdx Definition


Wind Chill Definition


Weather Definition


TIME
00:00 Legend Double Dagger -1.0 -3.1 86 22 3 24.1 102.53   -2 LegendNANA
01:00 Legend Double Dagger -0.9 -3.6 82 36 3 24.1 102.54   -2 LegendNANA
02:00 Legend Double Dagger -1.2 -2.8 89 25 4 24.1 102.57   -3 Cloudy
03:00 Legend Double Dagger -1.8 -3.1 90 20 4 24.1 102.57   -3 LegendNANA
04:00 Legend Double Dagger -1.3 -2.8 90 23 3 24.1 102.63   -2 LegendNANA
05:00 Legend Double Dagger -0.9 -2.2 91 36 2 24.1 102.59   -2 Cloudy
06:00 Legend Double Dagger -0.2 -2.2 86 31 3 24.1 102.62   -1 LegendNANA
07:00 Legend Double Dagger -0.8 -1.9 93 23 4 24.1 102.59   -2 LegendNANA
08:00 Legend Double Dagger 0.2 -1.3 90 23 3 24.1 102.62     Cloudy
09:00 Legend Double Dagger 2.0 -0.7 82 36 1 24.1 102.57     LegendNANA
10:00 Legend Double Dagger 3.1 -1.6 71 5 4 24.1 102.50     LegendNANA
11:00 Legend Double Dagger 3.7 -1.6 68 36 2 24.1 102.46     Rain
12:00 Legend Double Dagger 4.0 0.6 78 8 5 9.7 102.33     Rain,Fog
13:00 Legend Double Dagger 3.7 2.5 92 36 1 6.4 102.23     Rain,Fog
14:00 Legend Double Dagger 4.2 3.6 96 7 3 6.4 102.12     Rain,Fog
15:00 Legend Double Dagger 5.2 4.7 97 12 8 4.8 101.93     Rain,Fog
16:00 Legend Double Dagger 5.9 5.3 96 0 1 4.8 101.85     Rain,Fog
17:00 Legend Double Dagger 5.8 5.6 98 36 3 4.8 101.80     Rain,Fog
18:00 Legend Double Dagger 5.7 5.6 99 33 4 4.8 101.76     Rain,Fog
19:00 Legend Double Dagger 5.8 5.6 99 36 1 2.8 101.67     Rain,Fog
20:00 Legend Double Dagger 5.8 5.7 99 19 5 2.8 101.58     Rain,Fog
21:00 Legend Double Dagger 6.7 6.5 99 19 11 19.3 101.48     LegendNANA
22:00 Legend Double Dagger 7.4 7.1 98 19 12 9.7 101.40     Fog
23:00 Legend Double Dagger 8.2 7.9 98 20 10 9.7 101.29     Fog

Notes on Data Quality.

Legend

  • E = Estimated
  • M = Missing
  • NA = Not Available
  • ‡ = Partner data that is not subject to review by the National Climate Archives
Date modified: